| time (UTC) | temp F | wind direction | speed MPH | gust MPH | rain 1hr in | rain 24hr in | rain mn in | humidity % | barometer mb |
| 20260505062525 | 64 | 138 | 0.0 | 3.0 | 0.00 | 0.00 | 0.00 | 78 | 1016.7 |
| 20260505061520 | 64 | 156 | 1.0 | 3.0 | 0.00 | 0.00 | 0.00 | 77 | 1016.8 |
| 20260505060535 | 65 | 154 | 1.0 | 3.0 | 0.00 | 0.00 | 0.00 | 76 | 1016.8 |
| 20260505055531 | 65 | 170 | 1.0 | 3.0 | 0.00 | 0.00 | 0.00 | 76 | 1017.0 |
| 20260505054525 | 65 | 164 | 2.0 | 4.0 | 0.00 | 0.00 | 0.00 | 75 | 1017.1 |
| 20260505053521 | 65 | 166 | 2.0 | 4.0 | 0.00 | 0.00 | 0.00 | 75 | 1017.2 |
| 20260505052536 | 65 | 163 | 2.0 | 3.0 | 0.00 | 0.00 | 0.00 | 74 | 1017.2 |
| 20260505051531 | 65 | 173 | 1.0 | 4.0 | 0.00 | 0.00 | 0.00 | 74 | 1017.3 |
| 20260505050526 | 65 | 175 | 2.0 | 5.0 | 0.00 | 0.00 | 0.00 | 74 | 1017.3 |
| 20260505041522 | 65 | 172 | 2.0 | 5.0 | 0.00 | 0.00 | 0.00 | 71 | 1017.4 |
| 20260505040517 | 65 | 171 | 1.0 | 4.0 | 0.00 | 0.00 | 0.00 | 71 | 1017.4 |
| 20260505035532 | 65 | 165 | 2.0 | 4.0 | 0.00 | 0.00 | 0.00 | 70 | 1017.3 |
| 20260505034527 | 66 | 168 | 2.0 | 4.0 | 0.00 | 0.00 | 0.00 | 69 | 1017.4 |
| 20260505033523 | 66 | 169 | 1.0 | 3.0 | 0.00 | 0.00 | 0.00 | 67 | 1017.4 |
| 20260505032518 | 66 | 169 | 2.0 | 6.0 | 0.00 | 0.00 | 0.00 | 67 | 1017.3 |
| 20260505031533 | 66 | 174 | 2.0 | 5.0 | 0.00 | 0.00 | 0.00 | 66 | 1017.4 |
| 20260505030528 | 66 | 172 | 2.0 | 5.0 | 0.00 | 0.00 | 0.00 | 66 | 1017.3 |
| 20260505025523 | 66 | 175 | 2.0 | 6.0 | 0.00 | 0.00 | 0.00 | 66 | 1017.3 |
| 20260505024518 | 66 | 161 | 1.0 | 4.0 | 0.00 | 0.00 | 0.00 | 66 | 1017.6 |
| 20260505023534 | 67 | 180 | 1.0 | 3.0 | 0.00 | 0.00 | 0.00 | 65 | 1017.6 |
| 20260505022528 | 66 | 178 | 2.0 | 5.0 | 0.00 | 0.00 | 0.00 | 64 | 1017.6 |
| 20260505021523 | 67 | 189 | 3.0 | 6.0 | 0.00 | 0.00 | 0.00 | 64 | 1017.5 |
| 20260505020519 | 66 | 170 | 2.0 | 4.0 | 0.00 | 0.00 | 0.00 | 64 | 1017.6 |
| 20260505015534 | 67 | 185 | 2.0 | 5.0 | 0.00 | 0.00 | 0.00 | 63 | 1017.5 |
| 20260505014529 | 67 | 178 | 2.0 | 8.0 | 0.00 | 0.00 | 0.00 | 63 | 1017.2 |
| 20260505013525 | 67 | 171 | 2.0 | 5.0 | 0.00 | 0.00 | 0.00 | 62 | 1017.1 |
| 20260505012520 | 67 | 183 | 3.0 | 7.0 | 0.00 | 0.00 | 0.00 | 62 | 1017.1 |
| 20260505011535 | 67 | 178 | 3.0 | 6.0 | 0.00 | 0.00 | 0.00 | 62 | 1017.0 |
| 20260505010530 | 67 | 174 | 2.0 | 8.0 | 0.00 | 0.00 | 0.00 | 62 | 1016.9 |
| 20260505005525 | 66 | 177 | 2.0 | 5.0 | 0.00 | 0.00 | 0.00 | 62 | 1016.8 |
| 20260505004521 | 67 | 191 | 2.0 | 4.0 | 0.00 | 0.00 | 0.00 | 61 | 1016.7 |
| 20260505003536 | 67 | 178 | 2.0 | 5.0 | 0.00 | 0.00 | 0.00 | 60 | 1016.7 |
| 20260505002531 | 67 | 170 | 2.0 | 6.0 | 0.00 | 0.00 | 0.00 | 59 | 1016.8 |
| 20260505001526 | 67 | 180 | 3.0 | 6.0 | 0.00 | 0.00 | 0.00 | 60 | 1016.6 |
| 20260505000521 | 67 | 181 | 2.0 | 6.0 | 0.00 | 0.00 | 0.00 | 61 | 1016.5 |
| 20260504235516 | 67 | 181 | 3.0 | 9.0 | 0.00 | 0.00 | 0.00 | 61 | 1016.7 |
| 20260504234531 | 67 | 180 | 2.0 | 6.0 | 0.00 | 0.00 | 0.00 | 62 | 1016.5 |
| 20260504233527 | 68 | 181 | 3.0 | 7.0 | 0.00 | 0.00 | 0.00 | 63 | 1016.4 |
| 20260504232521 | 68 | 195 | 2.0 | 5.0 | 0.00 | 0.00 | 0.00 | 61 | 1016.4 |
| 20260504231516 | 68 | 181 | 3.0 | 8.0 | 0.00 | 0.00 | 0.00 | 60 | 1016.5 |
| 20260504230531 | 68 | 193 | 3.0 | 7.0 | 0.00 | 0.00 | 0.00 | 58 | 1016.4 |
| 20260504225527 | 69 | 192 | 3.0 | 7.0 | 0.00 | 0.00 | 0.00 | 59 | 1016.4 |
| 20260504224522 | 69 | 193 | 3.0 | 7.0 | 0.00 | 0.00 | 0.00 | 59 | 1016.5 |
| 20260504223517 | 69 | 190 | 4.0 | 10.0 | 0.00 | 0.00 | 0.00 | 58 | 1016.4 |
| 20260504222532 | 69 | 200 | 4.0 | 9.0 | 0.00 | 0.00 | 0.00 | 57 | 1016.4 |
| 20260504221527 | 70 | 195 | 4.0 | 9.0 | 0.00 | 0.00 | 0.00 | 56 | 1016.4 |
| 20260504220523 | 70 | 188 | 2.0 | 5.0 | 0.00 | 0.00 | 0.00 | 59 | 1016.4 |
| 20260504215518 | 70 | 205 | 3.0 | 8.0 | 0.00 | 0.00 | 0.00 | 59 | 1016.3 |
| 20260504214533 | 70 | 193 | 4.0 | 8.0 | 0.00 | 0.00 | 0.00 | 56 | 1016.4 |
| 20260504213528 | 70 | 200 | 4.0 | 8.0 | 0.00 | 0.00 | 0.00 | 56 | 1016.5 |
| 20260504212524 | 70 | 187 | 3.0 | 8.0 | 0.00 | 0.00 | 0.00 | 56 | 1016.5 |
| 20260504211519 | 71 | 205 | 3.0 | 6.0 | 0.00 | 0.00 | 0.00 | 57 | 1016.5 |
| 20260504210534 | 71 | 202 | 3.0 | 6.0 | 0.00 | 0.00 | 0.00 | 56 | 1016.5 |
| 20260504205529 | 71 | 200 | 5.0 | 10.0 | 0.00 | 0.00 | 0.00 | 55 | 1016.6 |
| 20260504204524 | 72 | 190 | 4.0 | 11.0 | 0.00 | 0.00 | 0.00 | 55 | 1016.5 |
| 20260504203519 | 72 | 199 | 4.0 | 8.0 | 0.00 | 0.00 | 0.00 | 55 | 1016.6 |
| 20260504202534 | 71 | 200 | 5.0 | 14.0 | 0.00 | 0.00 | 0.00 | 54 | 1016.6 |
| 20260504201530 | 72 | 202 | 5.0 | 14.0 | 0.00 | 0.00 | 0.00 | 53 | 1016.8 |
| 20260504200525 | 73 | 214 | 3.0 | 7.0 | 0.00 | 0.00 | 0.00 | 53 | 1016.7 |
| 20260504195520 | 73 | 192 | 3.0 | 7.0 | 0.00 | 0.00 | 0.00 | 54 | 1016.8 |
| 20260504194535 | 73 | 204 | 3.0 | 8.0 | 0.00 | 0.00 | 0.00 | 54 | 1017.0 |
| 20260504193531 | 73 | 221 | 3.0 | 5.0 | 0.00 | 0.00 | 0.00 | 54 | 1017.2 |
| 20260504192526 | 73 | 204 | 4.0 | 8.0 | 0.00 | 0.00 | 0.00 | 56 | 1017.4 |
| 20260504191521 | 73 | 217 | 3.0 | 9.0 | 0.00 | 0.00 | 0.00 | 56 | 1017.3 |
| 20260504190516 | 73 | 194 | 4.0 | 9.0 | 0.00 | 0.00 | 0.00 | 55 | 1017.5 |
| 20260504185532 | 73 | 217 | 4.0 | 8.0 | 0.00 | 0.00 | 0.00 | 55 | 1017.4 |
| 20260504184527 | 73 | 202 | 4.0 | 9.0 | 0.00 | 0.00 | 0.00 | 52 | 1017.7 |
| 20260504183522 | 72 | 213 | 3.0 | 9.0 | 0.00 | 0.00 | 0.00 | 55 | 1017.8 |
| 20260504182517 | 71 | 206 | 3.0 | 7.0 | 0.00 | 0.00 | 0.00 | 57 | 1017.8 |
| 20260504181532 | 71 | 195 | 5.0 | 11.0 | 0.00 | 0.00 | 0.00 | 57 | 1017.9 |
| 20260504180527 | 71 | 205 | 5.0 | 14.0 | 0.00 | 0.00 | 0.00 | 56 | 1017.9 |
| 20260504175522 | 71 | 188 | 7.0 | 13.0 | 0.00 | 0.00 | 0.00 | 55 | 1017.9 |
| 20260504174517 | 72 | 212 | 5.0 | 11.0 | 0.00 | 0.00 | 0.00 | 55 | 1017.8 |
| 20260504173532 | 72 | 217 | 3.0 | 6.0 | 0.00 | 0.00 | 0.00 | 55 | 1017.8 |
| 20260504172527 | 73 | 199 | 4.0 | 9.0 | 0.00 | 0.00 | 0.00 | 54 | 1017.9 |
| 20260504171523 | 72 | 208 | 3.0 | 7.0 | 0.00 | 0.00 | 0.00 | 56 | 1017.9 |
| 20260504170517 | 71 | 190 | 5.0 | 9.0 | 0.00 | 0.00 | 0.00 | 55 | 1018.0 |
| 20260504150520 | 70 | 204 | 2.0 | 9.0 | 0.00 | 0.00 | 0.00 | 55 | 1018.4 |
| 20260504140531 | 70 | 197 | 2.0 | 5.0 | 0.00 | 0.00 | 0.00 | 58 | 1018.3 |
| 20260504130523 | 64 | 153 | 2.0 | 6.0 | 0.00 | 0.00 | 0.00 | 74 | 1018.6 |
| 20260504110525 | 50 | 55 | 2.0 | 4.0 | 0.00 | 0.00 | 0.00 | 96 | 1018.5 |
| 20260504100516 | 50 | 98 | 2.0 | 4.0 | 0.00 | 0.00 | 0.00 | 94 | 1018.0 |
| 20260504081523 | 52 | 57 | 3.0 | 5.0 | 0.00 | 0.00 | 0.00 | 90 | 1018.4 |
| 20260504080518 | 53 | 100 | 1.0 | 4.0 | 0.00 | 0.00 | 0.00 | 89 | 1018.3 |